Location: �terpigny
(49.8910°N, 2.9249°E)
Time: 11:33:56
(UTC+00:00)

Cosmos 2100 Rocket - Pass Details

Date: 24 October 2021
Orbit: 955 x 1001 km, 82.9° (Epoch: 05 December)

Event Time Altitude Azimuth Distance (km) Brightness Sun altitude
Rises 18:19:24 0° 158° (SSE) 3,685 6.8 -16.7°
Reaches altitude 10° 18:22:05 10° 150° (SSE) 2,748 6.1 -17.1°
Maximum altitude 18:27:44 36° 87° (E) 1,536 4.5 -18.0°
Drops below altitude 10° 18:33:26 10° 23° (NNE) 2,782 6.2 -19.0°
Sets 18:36:10 0° 16° (NNE) 3,738 6.9 -19.4°
